Miscellaneous Local Product
Issued by NWS North Platte, NE

Home | Current Version | Previous Version | Graphics & Text | Print | Product List | Glossary On
Versions: 1 2 3 4 5 6 7 8 9 10 11 12 13 14 15 16 17 18 19 20 21 22 23 24 25 26 27 28 29 30 31 32 33 34 35 36 37 38 39 40 41 42 43 44 45 46 47 48 49 50
000
AXUS43 KLBF 240310
MISLBF


WESTERN AND NORTH CENTRAL NEBRASKA HOURLY WEATHER ROUNDUP
NATIONAL WEATHER SERVICE NORTH PLATTE NE
1000 PM CDT SUN APR 23 2017

NOTE: "FAIR" INDICATES FEW OR NO CLOUDS BELOW 12,000 FEET WITH NO
SIGNIFICANT WEATHER AND/OR OBSTRUCTIONS TO VISIBILITY.

NOTE: STATIONS NOT REPORTING VARIABLES SUCH AS SKY/WEATHER OR
PRESSURE ARE PROVIDED BY RAWS AND APRS NETWORKS AND ARE NOT UNDER
NATIONAL WEATHER SERVICE QUALITY CONTROL.

...OBSERVATIONS IN AND NEAR THE EASTERN PANHANDLE OF NEBRASKA...

CITY           SKY/WX    TMP DP  RH WIND       PRES   REMARKS
PINE RIDGE     CLOUDY    64  40  41 S15       29.61F
CHADRON        PTCLDY    62  41  46 S15       29.59F
ALLIANCE       PTCLDY    54  40  59 SE9       29.65S
SIDNEY         CLOUDY    54  39  57 S10       29.69S
CRESCENT LAKE    N/A     61  40  46 S9G17       N/A
$$

...OBSERVATIONS IN NORTHERN NEBRASKA AND FAR SOUTHERN SOUTH DAKOTA...

CITY           SKY/WX    TMP DP  RH WIND       PRES   REMARKS
WINNER         FAIR      63  38  39 S15       29.66S
VALENTINE      MOCLDY    65  37  35 S17       29.68S
THEDFORD       CLOUDY    62  36  38 S15       29.73S
AINSWORTH      PTCLDY    58  36  43 S12       29.71F
O`NEILL        PTCLDY    59  28  31 S12       29.78S
ORD            MOCLDY    59  30  33 S14       29.78F
BROKEN BOW     CLOUDY    57  29  34 S12       29.77F
VALENTINE NWR    N/A     63  38  39 S12         N/A
HALSEY           N/A     62  31  31 S8G18       N/A
BUTTE            N/A     60  33  36 S14         N/A
CHAMBERS         N/A     57  31  37 S3          N/A
EWING            N/A     58  34  40 S7G14       N/A
$$

...OBSERVATIONS IN SOUTHWEST NEBRASKA AND FAR NORTHEAST COLORADO...

CITY           SKY/WX    TMP DP  RH WIND       PRES   REMARKS
HOLYOKE        FAIR      57  43  58 SE9       29.71S
IMPERIAL       CLOUDY    57  39  51 S16       29.71F
OGALLALA       CLOUDY    60  39  44 SE10      29.71R
NORTH PLATTE   CLOUDY    61  35  37 SE12      29.74F
MCCOOK         CLOUDY    59  30  33 S10       29.76F
LEXINGTON      CLOUDY    59  30  32 S20G25    29.79F
STAPLETON        N/A     56  35  45 CALM        N/A
GOTHENBURG       N/A     63  28  26 S12         N/A
CALLAWAY         N/A     58  30  34 S14         N/A
$$

...OBSERVATIONS IN CENTRAL LINCOLN COUNTY AREA...

CITY           SKY/WX    TMP DP  RH WIND       PRES   REMARKS
N.P. AIRPORT   CLOUDY    61  35  37 SE12      29.74F
N.P. DOWNTOWN    N/A     61  38  41 SE5G12      N/A
N.P. HILLCREST   N/A     60  38  44 S14G22      N/A
$$

...SOME OBSERVATIONS FROM AROUND THE REGION...

CITY           SKY/WX    TMP DP  RH WIND       PRES   REMARKS
DENVER         MOCLDY    63  36  36 SW9       29.68S
LIMON          CLOUDY    52  39  61 SE6       29.73S
ASPEN          CLOUDY    52  19  27 CALM      29.85F
LARAMIE        CLOUDY    47  29  49 S10       29.77S
CASPER         CLOUDY    55  37  50 CALM      29.68R
CHEYENNE       CLOUDY    52  36  54 SW7       29.74F
SCOTTSBLUFF    CLOUDY    60  37  42 SE9       29.65R
GRAND ISLAND   CLOUDY    57  33  40 S13       29.85S
OMAHA          CLEAR     62  31  31 S14       29.91S
SIOUX FALLS    MOCLDY    61  31  32 S15       29.79S
PIERRE         CLOUDY    56  45  66 N10       29.60S
RAPID CITY     CLOUDY    53  40  61 N10       29.62F
BISMARCK       CLOUDY    33  31  92 E18       29.86R WCI  22
KANSAS CITY    CLOUDY    54  34  46 S8        30.00R
HILL CITY      CLOUDY    59  35  40 SE13G21   29.83F
WICHITA        MOCLDY    53  40  61 S9        29.97F
DODGE CITY     CLEAR     57  33  40 S22G28    29.87F
OKLAHOMA CITY  PTCLDY    53  39  59 E9        30.00S
DALLAS         CLEAR     61  41  47 NE5       30.00R
AMARILLO       CLEAR     59  34  39 S18       29.94R
$$




USA.gov is the U.S. government's official web portal to all federal, state and local government web resources and services.